Location: Fornova de Taro
(44.7000°N, 10.1000°E)
Time: 09:02:59
(UTC+00:00)

Cosmos 292 Rocket - Pass Details

Date: 27 September 2022
Orbit: 673 x 692 km, 74.0° (Epoch: 04 December)

Event Time Altitude Azimuth Distance (km) Brightness Sun altitude
Exits shadow 02:37:52 29° 342° (NNW) 1,271 5.2 -27.3°
Drops below altitude 10° 02:40:39 10° 7° (N) 2,156 6.7 -26.9°
Sets 02:43:07 0° 15° (NNE) 3,076 7.7 -26.5°
